Springfield, OH

3:13 PM EDT on July 20, 2017 (GMT -0400)
Springfield-Beckley Municipal

Weather History for KSGH - March, 2013

Change the Weather History Date:

Saturday, March 9, 2013

  Actual Average (KFFO) Record (KFFO)
Temperature  
Mean Temperature 36 °F -  
Max Temperature 48 °F 43 °F 73 °F (2016)
Min Temperature 23 °F 24 °F 1 °F (2008)
Degree Days  
Heating Degree Days 30    
Moisture  
Dew Point 29 °F    
Average Humidity 74    
Maximum Humidity 92    
Minimum Humidity 61    
Precipitation  
Precipitation 0.00 in - - ()
Sea Level Pressure  
Sea Level Pressure 30.27 in    
Wind  
Wind Speed 9 mph (ESE)    
Max Wind Speed 13 mph    
Max Gust Speed -    
Visibility 7 miles    
Events      
Averages and records for this station are not official NWS values.
T = Trace of Precipitation, MM = Missing Value Source: NWS Daily Summary

Daily Weather History Graph

Daily Weather History Graph

Search for Another Location

Airport or City:

Trip Planner

Search our weather history database for the weather conditions in past years. The results will help you decide how hot, cold, wet, or windy it might be!

Date:

Astronomy

Mar. 09, 2013 Rise Set
Actual Time 6:55 AM EST 6:36 PM EST
Civil Twilight 6:29 AM EST 7:03 PM EST
Nautical Twilight 5:57 AM EST 7:34 PM EST
Astronomical Twilight 5:26 AM EST 8:06 PM EST
Moon 5:19 AM EST (3/9) 4:37 PM EST (3/9)
Length of Visible Light 12h 34m
Length of Day
11h 40m
Waning Crescent, 5% of the Moon is Illuminated
Mar 9
Waning Crescent
Mar 11
New
Mar 19
First Quarter
Mar 27
Full
Apr 3
Last Quarter

Hourly Weather History & Observations

Time (EST) Temp. Windchill Dew Point Humidity Pressure Visibility Wind Dir Wind Speed Gust Speed Precip Events Conditions
12:56 AM 24.1 °F 17.0 °F 21.0 °F 88% 30.42 in 6.0 mi ENE 5.8 mph - N/A   Clear
1:56 AM 25.2 °F 16.5 °F 22.1 °F 88% 30.41 in 7.0 mi East 8.1 mph - N/A   Clear
2:56 AM 26.1 °F 16.8 °F 23.0 °F 88% 30.39 in 7.0 mi East 9.2 mph - N/A   Clear
3:56 AM 26.1 °F 16.8 °F 23.0 °F 88% 30.36 in 6.0 mi East 9.2 mph - N/A   Clear
4:56 AM 24.1 °F 16.0 °F 21.0 °F 88% 30.37 in 6.0 mi East 6.9 mph - N/A   Clear
5:56 AM 23.0 °F 14.7 °F 20.1 °F 89% 30.39 in 6.0 mi East 6.9 mph - N/A   Clear
6:56 AM 24.1 °F 15.2 °F 22.1 °F 92% 30.38 in 5.0 mi East 8.1 mph - N/A   Clear
7:56 AM 28.0 °F 19.3 °F 24.1 °F 85% 30.36 in 5.0 mi ESE 9.2 mph - N/A   Clear
8:56 AM 32.0 °F 23.0 °F 26.1 °F 79% 30.35 in 6.0 mi ESE 11.5 mph - N/A   Haze
9:56 AM 34.0 °F 25.0 °F 27.1 °F 76% 30.34 in 7.0 mi SE 12.7 mph - N/A   Clear
10:56 AM 36.0 °F 27.5 °F 28.0 °F 73% 30.35 in 7.0 mi SE 12.7 mph - N/A   Clear
11:56 AM 36.9 °F 30.1 °F 29.1 °F 74% 30.34 in 7.0 mi SE 9.2 mph - N/A   Scattered Clouds
12:56 PM 41.0 °F 34.3 °F 32.0 °F 70% 30.30 in 7.0 mi SE 11.5 mph - N/A   Clear
1:56 PM 43.9 °F 37.9 °F 34.0 °F 68% 30.26 in 7.0 mi ESE 11.5 mph - N/A   Clear
2:56 PM 46.9 °F - 34.9 °F 63% 30.22 in 8.0 mi SE 11.5 mph - N/A   Clear
3:56 PM 48.9 °F - 36.0 °F 61% 30.19 in 8.0 mi SE 8.1 mph - N/A   Clear
4:56 PM 48.9 °F - 37.9 °F 66% 30.17 in 8.0 mi ESE 5.8 mph - N/A   Clear
5:56 PM 47.8 °F - 36.0 °F 63% 30.15 in 8.0 mi SE 8.1 mph - N/A   Clear
6:56 PM 45.0 °F 40.1 °F 34.9 °F 68% 30.15 in 9.0 mi SSE 9.2 mph - N/A   Clear
7:56 PM 45.0 °F 42.6 °F 34.9 °F 68% 30.15 in 9.0 mi SSE 4.6 mph - N/A   Overcast
8:56 PM 45.0 °F 39.7 °F 34.0 °F 65% 30.13 in 9.0 mi SSE 10.4 mph - N/A   Partly Cloudy
9:56 PM 45.9 °F 40.4 °F 32.9 °F 61% 30.12 in 9.0 mi SE 11.5 mph - N/A   Mostly Cloudy
10:56 PM 45.9 °F 40.8 °F 32.9 °F 61% 30.09 in 9.0 mi SE 10.4 mph - N/A   Partly Cloudy
11:56 PM 45.0 °F 38.9 °F 32.9 °F 63% 30.07 in 9.0 mi SE 12.7 mph - N/A   Clear